Weather History for Munising, MI

Change the Weather History Date:

Friday, August 10, 2012

  Actual Average (KISQ) Record (KISQ)
Temperature  
Mean Temperature 64 °F -  
Max Temperature 66 °F 72 °F 85 °F (1956)
Min Temperature 62 °F 54 °F 32 °F (1972)
Degree Days  
Heating Degree Days 1    
Growing Degree Days 14 (Base 50)    
Moisture  
Dew Point 55 °F    
Average Humidity 72    
Maximum Humidity 78    
Minimum Humidity 60    
Precipitation  
Precipitation 0.00 in - - ()
Sea Level Pressure  
Sea Level Pressure 30.04 in    
Wind  
Wind Speed 14 mph (NNE)    
Max Wind Speed 25 mph    
Max Gust Speed 31 mph    
Averages and records for this station are not official NWS values.
T = Trace of Precipitation, MM = Missing Value Source: NWS Daily Summary

Daily Weather History Graph

Daily Weather History Graph

Search for Another Location

Airport:

Trip Planner

Search our weather history database for the weather conditions in past years. The results will help you decide how hot, cold, wet, or windy it might be!

Date:

Astronomy

Aug. 10, 2012 Rise Set
Actual Time 6:39 AM EDT 9:03 PM EDT
Civil Twilight 6:05 AM EDT 9:36 PM EDT
Nautical Twilight 5:23 AM EDT 10:18 PM EDT
Astronomical Twilight 4:36 AM EDT 11:05 PM EDT
Moon 12:24 AM EDT (8/10) 3:48 PM EDT (8/10)
Length of Visible Light 15h 30m
Length of Day
14h 23m
Last Quarter, 42% of the Moon is Illuminated
Aug 10
Last Quarter
Aug 17
New
Aug 24
First Quarter
Aug 31
Full
Sep 8
Last Quarter

Hourly Weather History & Observations

Time (EDT) Temp. Dew Point Humidity Pressure Visibility Wind Dir Wind Speed Gust Speed Precip Events Conditions
12:56 AM 64.0 °F 54.0 °F 70% 30.04 in - ENE 9.2 mph - N/A   Unknown
1:56 AM 63.0 °F 53.1 °F 70% 30.03 in - NE 9.2 mph - N/A   Unknown
2:56 AM 63.0 °F 55.0 °F 75% 30.03 in - NNE 9.2 mph - N/A   Unknown
3:56 AM 63.0 °F 55.0 °F 75% 30.04 in - NE 8.1 mph - N/A   Unknown
4:56 AM 63.0 °F 54.0 °F 72% 30.04 in - NE 15.0 mph - N/A   Unknown
5:56 AM 63.0 °F 55.0 °F 75% 30.04 in - NE 16.1 mph - N/A   Unknown
6:56 AM 62.1 °F 54.0 °F 75% 30.06 in - NE 13.8 mph - N/A   Unknown
7:56 AM 62.1 °F 54.0 °F 75% 30.07 in - NE 12.7 mph - N/A   Unknown
8:56 AM 64.0 °F 55.9 °F 75% 30.07 in - NNE 20.7 mph - N/A   Unknown
9:56 AM 64.0 °F 55.9 °F 75% 30.07 in - NNE 21.9 mph - N/A   Unknown
10:56 AM 63.0 °F 55.9 °F 78% 30.07 in - NE 21.9 mph - N/A   Unknown
11:56 AM 63.0 °F 55.9 °F 78% 30.07 in - NNE 18.4 mph - N/A   Unknown
12:56 PM 64.0 °F 55.9 °F 75% 30.06 in - North 18.4 mph - N/A   Unknown
1:56 PM 64.0 °F 55.9 °F 75% 30.05 in - NNE 19.6 mph - N/A   Unknown
2:56 PM 64.0 °F 54.0 °F 70% 30.05 in - North 25.3 mph 31.1 mph N/A   Unknown
3:56 PM 64.9 °F 53.1 °F 65% 30.05 in - North 23.0 mph 29.9 mph N/A   Unknown
4:56 PM 64.9 °F 53.1 °F 65% 30.04 in - North 18.4 mph 26.5 mph N/A   Unknown
5:56 PM 66.0 °F 52.0 °F 60% 30.02 in - North 18.4 mph 28.8 mph N/A   Unknown
6:56 PM 66.0 °F 55.0 °F 68% 30.02 in - NNW 16.1 mph - N/A   Unknown
7:56 PM 66.0 °F 54.0 °F 65% 30.01 in - NNW 16.1 mph - N/A   Unknown
8:56 PM 64.9 °F 55.0 °F 70% 30.00 in - North 15.0 mph 21.9 mph N/A   Unknown
9:56 PM 64.9 °F 55.0 °F 70% 30.00 in - NNW 15.0 mph 21.9 mph N/A   Unknown
10:56 PM 64.9 °F 55.9 °F 73% 30.00 in - NNW 12.7 mph - N/A   Unknown
11:56 PM 64.9 °F 55.9 °F 73% 29.99 in - North 11.5 mph - N/A   Unknown